Regional Weather Roundup
Issued by NWS

Home | Current Version | Previous Version | Graphics & Text | Print | Product List | Glossary On
Versions: 1 2 3 4 5 6 7 8 9 10 11 12 13 14 15 16 17 18 19 20 21 22 23 24 25 26 27 28 29 30 31 32 33 34 35 36 37 38 39 40 41 42 43 44 45 46 47 48 49 50
253
ASUS44 KMEG 251310
RWRTN
TENNESSEE HOURLY STATE WEATHER ROUNDUP
NATIONAL WEATHER SERVICE MEMPHIS TN
700 AM CST SUN FEB 25 2018

TNZ002-004-019-021-049-052-054-088>092-251400-
WEST TENNESSEE

CITY           SKY/WX    TMP DP  RH WIND       PRES   REMARKS
MEMPHIS INTL   MOCLDY    46  40  79 NW5       30.11R
NWS MEMPHIS      N/A     46 N/A N/A MISG        N/A
JACKSON        FAIR      48  41  76 NW8       30.10R
DYERSBURG      FAIR      45  36  70 NW6       30.12R
SOMERVILLE     CLEAR     48  41  76 NW7       30.08S
COVINGTON      CLEAR     45  39  81 N7        30.10S
UNION CITY     CLEAR     45  36  70 NW6       30.10R
BOLIVAR        CLEAR     48  43  81 CALM      30.08S
PARIS          CLEAR     45  39  81 VRB6      30.08R
LEXINGTON      CLEAR     48  43  81 NW5       30.08R
SELMER         CLEAR     48  45  87 CALM      30.09R
SAVANNAH       CLEAR     50  45  81 NW3       30.08R
$$

TNZ008-025-027-028-033-062-065-066-251400-
NORTH MIDDLE TENNESSEE

CITY           SKY/WX    TMP DP  RH WIND       PRES   REMARKS
NASHVILLE      CLOUDY    53  45  74 W8        30.06R
PORTLAND       CLEAR     50  46  87 NW6G12    30.06R
CLARKSVILLE    FAIR      48  38  68 NW7       30.06R
SMYRNA         MOCLDY    54  52  93 W7        30.06R
COOKEVILLE     CLOUDY    54  52  94 SW7       30.04R
GALLATIN       CLEAR     54  46  76 NW8       30.08R
CROSSVILLE     CLOUDY    50  48  93 W6        30.04R
$$

TNZ061-075-076-078-094-096-097-251400-
SOUTH MIDDLE TENNESSEE

CITY           SKY/WX    TMP DP  RH WIND       PRES   REMARKS
FAYETTEVILLE   CLOUDY    54  54 100 VRB5      30.04F
TULLAHOMA      MOCLDY    52  52 100 SW6       30.04R
WINCHESTER     MOCLDY    52  52 100 S5        30.04F
MCMINNVILLE    PTCLDY    54  52  94 SW7       30.04R
COLUMBIA       CLEAR     52  52 100 NW5G12    30.05R
SHELBYVILLE    CLOUDY    54  52  94 SW7       30.06R
$$

TNZ017-018-042-046-047-251400-
NORTHEAST TENNESSEE

CITY           SKY/WX    TMP DP  RH WIND       PRES   REMARKS
TRI CITIES     LGT RAIN  59  59 100 W3        30.06R
ELIZABETHTON   LGT RAIN  59  57  94 CALM      30.06R
$$

TNZ012-013-036-069-073-074-251400-
CENTRAL EAST TENNESSEE

CITY           SKY/WX    TMP DP  RH WIND       PRES   REMARKS
KNOXVILLE      LGT RAIN  56  55  97 S8        30.06R FOG
OAK RIDGE      LGT RAIN  56  56 100 S7        30.03R
DOWNTOWN KNOXV CLOUDY    57  55  94 SW5       30.06R FOG
GATLINBURG     MOCLDY    57  55  94 VRB7G15   30.08R FOG
JACKSBORO      MOCLDY    54  52  94 CALM      30.08R
$$

TNZ083-085-099-251400-
SOUTHEAST TENNESSEE

CITY           SKY/WX    TMP DP  RH WIND       PRES   REMARKS
CHATTANOOGA    MOCLDY    56  54  93 SE5       30.07S FOG
$$

SKY/WX REPORTED AS FAIR MEANS FEW OR NO CLOUDS BELOW
12 THOUSAND FEET.





USA.gov is the U.S. government's official web portal to all federal, state and local government web resources and services.